| time (UTC) | temp F | wind direction | speed MPH | gust MPH | rain 1hr in | rain 24hr in | rain mn in | humidity % | barometer mb |
| 20260905234653 | 96 | 126 | 1.0 | 1.0 | 0.00 | 0.00 | 0.00 | 47 | 1011.0 |
| 20260905234149 | 96 | 116 | 1.0 | 2.0 | 0.00 | 0.00 | 0.00 | 47 | 1011.0 |
| 20260905233644 | 97 | 132 | 0.0 | 1.0 | 0.00 | 0.00 | 0.00 | 48 | 1010.8 |
| 20260905233143 | 97 | 141 | 2.0 | 3.0 | 0.00 | 0.00 | 0.00 | 43 | 1010.8 |
| 20260905232638 | 97 | 142 | 3.0 | 3.0 | 0.00 | 0.00 | 0.00 | 42 | 1010.8 |
| 20260905232134 | 98 | 139 | 1.0 | 2.0 | 0.00 | 0.00 | 0.00 | 42 | 1011.0 |
| 20260905231629 | 98 | 118 | 2.0 | 5.0 | 0.00 | 0.00 | 0.00 | 42 | 1010.9 |
| 20260905231126 | 98 | 167 | 1.0 | 3.0 | 0.00 | 0.00 | 0.00 | 40 | 1010.9 |
| 20260905230621 | 99 | 139 | 1.0 | 2.0 | 0.00 | 0.00 | 0.00 | 44 | 1010.8 |
| 20260905230118 | 98 | 137 | 1.0 | 2.0 | 0.00 | 0.00 | 0.00 | 41 | 1010.9 |
| 20260905225613 | 99 | 106 | 1.0 | 1.0 | 0.00 | 0.00 | 0.00 | 43 | 1010.8 |
| 20260905225107 | 99 | 116 | 1.0 | 3.0 | 0.00 | 0.00 | 0.00 | 40 | 1010.9 |
| 20260905224602 | 99 | 165 | 1.0 | 5.0 | 0.00 | 0.00 | 0.00 | 41 | 1010.9 |
| 20260905224101 | 99 | 117 | 1.0 | 2.0 | 0.00 | 0.00 | 0.00 | 41 | 1010.8 |
| 20260905223559 | 99 | 84 | 2.0 | 2.0 | 0.00 | 0.00 | 0.00 | 42 | 1010.8 |
| 20260905223055 | 100 | 127 | 0.0 | 3.0 | 0.00 | 0.00 | 0.00 | 41 | 1011.0 |
| 20260905222555 | 99 | 93 | 1.0 | 2.0 | 0.00 | 0.00 | 0.00 | 40 | 1010.9 |
| 20260905222050 | 99 | 116 | 1.0 | 2.0 | 0.00 | 0.00 | 0.00 | 39 | 1010.8 |
| 20260905221546 | 99 | 335 | 1.0 | 5.0 | 0.00 | 0.00 | 0.00 | 40 | 1011.0 |
| 20260905221042 | 99 | 99 | 1.0 | 3.0 | 0.00 | 0.00 | 0.00 | 43 | 1011.0 |
| 20260905220538 | 100 | 157 | 2.0 | 2.0 | 0.00 | 0.00 | 0.00 | 42 | 1011.2 |
| 20260905220034 | 99 | 145 | 2.0 | 3.0 | 0.00 | 0.00 | 0.00 | 42 | 1011.1 |
| 20260905215533 | 99 | 88 | 1.0 | 3.0 | 0.00 | 0.00 | 0.00 | 44 | 1011.1 |
| 20260905215029 | 99 | 97 | 2.0 | 5.0 | 0.00 | 0.00 | 0.00 | 43 | 1011.2 |
| 20260905214525 | 100 | 81 | 3.0 | 5.0 | 0.00 | 0.00 | 0.00 | 43 | 1011.2 |
| 20260905214020 | 99 | 63 | 1.0 | 3.0 | 0.00 | 0.00 | 0.00 | 42 | 1011.4 |
| 20260905213515 | 100 | 82 | 3.0 | 5.0 | 0.00 | 0.00 | 0.00 | 43 | 1011.4 |
| 20260905213011 | 100 | 154 | 3.0 | 3.0 | 0.00 | 0.00 | 0.00 | 40 | 1011.4 |
| 20260905212505 | 102 | 97 | 2.0 | 3.0 | 0.00 | 0.00 | 0.00 | 41 | 1011.6 |
| 20260905212004 | 100 | 141 | 1.0 | 2.0 | 0.00 | 0.00 | 0.00 | 39 | 1011.5 |
| 20260905211500 | 100 | 146 | 2.0 | 2.0 | 0.00 | 0.00 | 0.00 | 40 | 1011.6 |
| 20260905210956 | 99 | 125 | 2.0 | 2.0 | 0.00 | 0.00 | 0.00 | 43 | 1011.7 |
| 20260905210451 | 99 | 106 | 3.0 | 6.0 | 0.00 | 0.00 | 0.00 | 43 | 1011.6 |
| 20260905205950 | 99 | 129 | 1.0 | 2.0 | 0.00 | 0.00 | 0.00 | 41 | 1011.9 |
| 20260905205445 | 100 | 318 | 6.0 | 7.0 | 0.00 | 0.00 | 0.00 | 40 | 1012.0 |
| 20260905204944 | 101 | 42 | 4.0 | 5.0 | 0.00 | 0.00 | 0.00 | 41 | 1012.1 |
| 20260905204440 | 100 | 152 | 2.0 | 3.0 | 0.00 | 0.00 | 0.00 | 40 | 1012.0 |
| 20260905203939 | 101 | 102 | 1.0 | 3.0 | 0.00 | 0.00 | 0.00 | 40 | 1012.1 |
| 20260905203435 | 102 | 166 | 1.0 | 2.0 | 0.00 | 0.00 | 0.00 | 38 | 1012.1 |
| 20260905202930 | 99 | 147 | 3.0 | 5.0 | 0.00 | 0.00 | 0.00 | 39 | 1012.0 |
| 20260905202425 | 99 | 98 | 2.0 | 5.0 | 0.00 | 0.00 | 0.00 | 45 | 1012.3 |
| 20260905201921 | 99 | 12 | 3.0 | 5.0 | 0.00 | 0.00 | 0.00 | 41 | 1012.3 |
| 20260905201415 | 100 | 117 | 0.0 | 3.0 | 0.00 | 0.00 | 0.00 | 40 | 1012.4 |
| 20260905200910 | 99 | 192 | 2.0 | 7.0 | 0.00 | 0.00 | 0.00 | 41 | 1012.5 |
| 20260905200406 | 97 | 66 | 1.0 | 3.0 | 0.00 | 0.00 | 0.00 | 41 | 1012.5 |
| 20260905195903 | 99 | 25 | 3.0 | 5.0 | 0.00 | 0.00 | 0.00 | 40 | 1012.8 |
| 20260905195359 | 98 | 132 | 1.0 | 2.0 | 0.00 | 0.00 | 0.00 | 41 | 1013.0 |
| 20260905194855 | 96 | 131 | 0.0 | 1.0 | 0.00 | 0.00 | 0.00 | 44 | 1012.8 |
| 20260905194354 | 96 | 75 | 1.0 | 3.0 | 0.00 | 0.00 | 0.00 | 45 | 1013.0 |
| 20260905193848 | 97 | 96 | 4.0 | 5.0 | 0.00 | 0.00 | 0.00 | 44 | 1013.1 |
| 20260905193343 | 96 | 104 | 1.0 | 3.0 | 0.00 | 0.00 | 0.00 | 45 | 1013.3 |
| 20260905192838 | 95 | 103 | 1.0 | 2.0 | 0.00 | 0.00 | 0.00 | 45 | 1013.1 |
| 20260905192334 | 96 | 79 | 3.0 | 3.0 | 0.00 | 0.00 | 0.00 | 45 | 1013.4 |
| 20260905191833 | 96 | 121 | 2.0 | 3.0 | 0.00 | 0.00 | 0.00 | 46 | 1013.4 |
| 20260905191332 | 96 | 109 | 1.0 | 3.0 | 0.00 | 0.00 | 0.00 | 46 | 1013.4 |
| 20260905190831 | 97 | 81 | 1.0 | 2.0 | 0.00 | 0.00 | 0.00 | 46 | 1013.6 |
| 20260905190325 | 98 | 88 | 2.0 | 5.0 | 0.00 | 0.00 | 0.00 | 45 | 1013.7 |
| 20260905185824 | 98 | 109 | 3.0 | 5.0 | 0.00 | 0.00 | 0.00 | 44 | 1013.7 |
| 20260905185319 | 98 | 100 | 1.0 | 5.0 | 0.00 | 0.00 | 0.00 | 45 | 1013.9 |
| 20260905184818 | 97 | 147 | 1.0 | 3.0 | 0.00 | 0.00 | 0.00 | 46 | 1013.9 |
| 20260905184317 | 97 | 72 | 1.0 | 5.0 | 0.00 | 0.00 | 0.00 | 45 | 1013.8 |
| 20260905183816 | 96 | 74 | 3.0 | 6.0 | 0.00 | 0.00 | 0.00 | 46 | 1014.1 |
| 20260905183312 | 94 | 16 | 2.0 | 3.0 | 0.00 | 0.00 | 0.00 | 47 | 1014.1 |
| 20260905182806 | 95 | 132 | 0.0 | 1.0 | 0.00 | 0.00 | 0.00 | 47 | 1014.1 |
| 20260905182306 | 96 | 144 | 1.0 | 3.0 | 0.00 | 0.00 | 0.00 | 47 | 1014.1 |
| 20260905181801 | 98 | 118 | 2.0 | 2.0 | 0.00 | 0.00 | 0.00 | 46 | 1014.3 |
| 20260905181300 | 97 | 90 | 1.0 | 5.0 | 0.00 | 0.00 | 0.00 | 45 | 1014.4 |
| 20260905180754 | 97 | 164 | 2.0 | 3.0 | 0.00 | 0.00 | 0.00 | 47 | 1014.6 |
| 20260905180250 | 95 | 106 | 2.0 | 2.0 | 0.00 | 0.00 | 0.00 | 48 | 1014.6 |
| 20260905175744 | 97 | 101 | 2.0 | 3.0 | 0.00 | 0.00 | 0.00 | 46 | 1014.7 |
| 20260905175239 | 97 | 86 | 0.0 | 1.0 | 0.00 | 0.00 | 0.00 | 46 | 1014.7 |
| 20260905174734 | 97 | 153 | 2.0 | 3.0 | 0.00 | 0.00 | 0.00 | 46 | 1014.8 |
| 20260905174230 | 96 | 133 | 2.0 | 5.0 | 0.00 | 0.00 | 0.00 | 47 | 1014.8 |
| 20260905173726 | 96 | 95 | 4.0 | 6.0 | 0.00 | 0.00 | 0.00 | 47 | 1014.8 |
| 20260905173221 | 94 | 69 | 1.0 | 8.0 | 0.00 | 0.00 | 0.00 | 48 | 1015.1 |
| 20260905172721 | 95 | 74 | 5.0 | 7.0 | 0.00 | 0.00 | 0.00 | 48 | 1015.1 |
| 20260905172215 | 94 | 92 | 3.0 | 5.0 | 0.00 | 0.00 | 0.00 | 48 | 1015.2 |
| 20260905171711 | 95 | 47 | 4.0 | 6.0 | 0.00 | 0.00 | 0.00 | 49 | 1015.1 |
| 20260905171207 | 96 | 102 | 2.0 | 3.0 | 0.00 | 0.00 | 0.00 | 49 | 1015.2 |
| 20260905170703 | 96 | 96 | 0.0 | 2.0 | 0.00 | 0.00 | 0.00 | 47 | 1015.1 |
| 20260905170158 | 96 | 106 | 2.0 | 5.0 | 0.00 | 0.00 | 0.00 | 48 | 1015.2 |
| 20260905165658 | 95 | 161 | 2.0 | 3.0 | 0.00 | 0.00 | 0.00 | 47 | 1015.2 |
| 20260905165153 | 95 | 128 | 1.0 | 2.0 | 0.00 | 0.00 | 0.00 | 49 | 1015.3 |
| 20260905164648 | 96 | 111 | 3.0 | 3.0 | 0.00 | 0.00 | 0.00 | 50 | 1015.4 |
| 20260905164147 | 95 | 104 | 1.0 | 2.0 | 0.00 | 0.00 | 0.00 | 50 | 1015.4 |
| 20260905163643 | 93 | 130 | 1.0 | 2.0 | 0.00 | 0.00 | 0.00 | 52 | 1015.4 |
| 20260905163140 | 94 | 109 | 1.0 | 3.0 | 0.00 | 0.00 | 0.00 | 54 | 1015.4 |
| 20260905162636 | 92 | 54 | 4.0 | 5.0 | 0.00 | 0.00 | 0.00 | 54 | 1015.4 |
| 20260905162134 | 92 | 65 | 1.0 | 7.0 | 0.00 | 0.00 | 0.00 | 54 | 1015.3 |
| 20260905161629 | 92 | 42 | 2.0 | 3.0 | 0.00 | 0.00 | 0.00 | 53 | 1015.3 |
| 20260905161127 | 93 | 79 | 4.0 | 5.0 | 0.00 | 0.00 | 0.00 | 55 | 1015.3 |
| 20260905160627 | 93 | 93 | 2.0 | 5.0 | 0.00 | 0.00 | 0.00 | 56 | 1015.5 |
| 20260905160121 | 93 | 116 | 1.0 | 3.0 | 0.00 | 0.00 | 0.00 | 57 | 1015.5 |
| 20260905155621 | 93 | 82 | 2.0 | 3.0 | 0.00 | 0.00 | 0.00 | 56 | 1015.5 |
| 20260905155120 | 93 | 69 | 1.0 | 2.0 | 0.00 | 0.00 | 0.00 | 55 | 1015.4 |
| 20260905154614 | 92 | 86 | 2.0 | 2.0 | 0.00 | 0.00 | 0.00 | 57 | 1015.3 |
| 20260905154110 | 92 | 59 | 3.0 | 3.0 | 0.00 | 0.00 | 0.00 | 56 | 1015.4 |
| 20260905153606 | 93 | 124 | 0.0 | 1.0 | 0.00 | 0.00 | 0.00 | 55 | 1015.6 |
| 20260905153101 | 92 | 124 | 0.0 | 1.0 | 0.00 | 0.00 | 0.00 | 56 | 1015.5 |
| 20260905152555 | 92 | 145 | 2.0 | 3.0 | 0.00 | 0.00 | 0.00 | 56 | 1015.4 |
| 20260905152050 | 91 | 148 | 0.0 | 2.0 | 0.00 | 0.00 | 0.00 | 58 | 1015.4 |
| 20260905151545 | 92 | 109 | 0.0 | 2.0 | 0.00 | 0.00 | 0.00 | 57 | 1015.2 |
| 20260905151041 | 92 | 120 | 0.0 | 1.0 | 0.00 | 0.00 | 0.00 | 57 | 1015.4 |
| 20260905150536 | 90 | 128 | 1.0 | 2.0 | 0.00 | 0.00 | 0.00 | 58 | 1015.4 |
| 20260905150034 | 88 | 323 | 1.0 | 2.0 | 0.00 | 0.00 | 0.00 | 62 | 1015.1 |
| 20260905145527 | 90 | 178 | 2.0 | 6.0 | 0.00 | 0.00 | 0.00 | 62 | 1015.3 |
| 20260905145027 | 89 | 103 | 1.0 | 2.0 | 0.00 | 0.00 | 0.00 | 61 | 1015.2 |
| 20260905144522 | 89 | 118 | 1.0 | 2.0 | 0.00 | 0.00 | 0.00 | 61 | 1015.4 |
| 20260905144021 | 89 | 159 | 1.0 | 3.0 | 0.00 | 0.00 | 0.00 | 62 | 1015.3 |
| 20260905143520 | 90 | 158 | 1.0 | 1.0 | 0.00 | 0.00 | 0.00 | 62 | 1015.5 |
| 20260905143015 | 89 | 122 | 0.0 | 3.0 | 0.00 | 0.00 | 0.00 | 63 | 1015.4 |
| 20260905142514 | 87 | 164 | 2.0 | 3.0 | 0.00 | 0.00 | 0.00 | 65 | 1015.6 |
| 20260905142009 | 88 | 129 | 0.0 | 2.0 | 0.00 | 0.00 | 0.00 | 66 | 1015.4 |
| 20260905141503 | 87 | 80 | 0.0 | 1.0 | 0.00 | 0.00 | 0.00 | 66 | 1015.5 |
| 20260905141000 | 87 | 93 | 1.0 | 2.0 | 0.00 | 0.00 | 0.00 | 69 | 1015.4 |
| 20260905140455 | 86 | 118 | 0.0 | 1.0 | 0.00 | 0.00 | 0.00 | 69 | 1015.4 |
| 20260905135953 | 87 | 114 | 0.0 | 1.0 | 0.00 | 0.00 | 0.00 | 68 | 1015.3 |
| 20260905135449 | 86 | 107 | 0.0 | 1.0 | 0.00 | 0.00 | 0.00 | 68 | 1015.4 |
| 20260905134944 | 85 | 141 | 1.0 | 1.0 | 0.00 | 0.00 | 0.00 | 70 | 1015.5 |
| 20260905134444 | 85 | 172 | 1.0 | 2.0 | 0.00 | 0.00 | 0.00 | 71 | 1015.4 |
| 20260905133943 | 85 | 113 | 0.0 | 1.0 | 0.00 | 0.00 | 0.00 | 71 | 1015.2 |
| 20260905133438 | 84 | 150 | 1.0 | 1.0 | 0.00 | 0.00 | 0.00 | 72 | 1015.4 |
| 20260905132938 | 84 | 117 | 0.0 | 1.0 | 0.00 | 0.00 | 0.00 | 73 | 1015.3 |
| 20260905132433 | 83 | 118 | 1.0 | 2.0 | 0.00 | 0.00 | 0.00 | 75 | 1015.2 |
| 20260905131928 | 83 | 127 | 1.0 | 1.0 | 0.00 | 0.00 | 0.00 | 75 | 1015.3 |
| 20260905131424 | 82 | 101 | 1.0 | 2.0 | 0.00 | 0.00 | 0.00 | 76 | 1015.1 |
| 20260905130923 | 81 | 93 | 0.0 | 0.0 | 0.00 | 0.00 | 0.00 | 77 | 1015.0 |
| 20260905130418 | 80 | 141 | 1.0 | 2.0 | 0.00 | 0.00 | 0.00 | 80 | 1014.9 |
| 20260905125918 | 80 | 142 | 1.0 | 1.0 | 0.00 | 0.00 | 0.00 | 79 | 1015.1 |
| 20260905125413 | 80 | 147 | 1.0 | 1.0 | 0.00 | 0.00 | 0.00 | 80 | 1014.9 |
| 20260905124908 | 79 | 111 | 0.0 | 1.0 | 0.00 | 0.00 | 0.00 | 81 | 1014.9 |
| 20260905124405 | 79 | 148 | 0.0 | 1.0 | 0.00 | 0.00 | 0.00 | 82 | 1014.7 |
| 20260905123904 | 79 | 123 | 0.0 | 0.0 | 0.00 | 0.00 | 0.00 | 82 | 1014.6 |
| 20260905123401 | 78 | 122 | 0.0 | 1.0 | 0.00 | 0.00 | 0.00 | 83 | 1014.8 |
| 20260905122856 | 78 | 118 | 0.0 | 1.0 | 0.00 | 0.00 | 0.00 | 84 | 1014.6 |
| 20260905122355 | 78 | 119 | 0.0 | 1.0 | 0.00 | 0.00 | 0.00 | 84 | 1014.8 |
| 20260905121851 | 78 | 132 | 1.0 | 1.0 | 0.00 | 0.00 | 0.00 | 84 | 1014.7 |
| 20260905121347 | 78 | 121 | 1.0 | 1.0 | 0.00 | 0.00 | 0.00 | 84 | 1014.6 |
| 20260905120846 | 78 | 111 | 0.0 | 1.0 | 0.00 | 0.00 | 0.00 | 84 | 1014.9 |
| 20260905120340 | 78 | 125 | 0.0 | 0.0 | 0.00 | 0.00 | 0.00 | 84 | 1014.7 |
| 20260905115836 | 78 | 123 | 0.0 | 1.0 | 0.00 | 0.00 | 0.00 | 84 | 1014.8 |
| 20260905115335 | 78 | 126 | 0.0 | 0.0 | 0.00 | 0.00 | 0.00 | 84 | 1014.8 |
| 20260905114835 | 78 | 128 | 0.0 | 1.0 | 0.00 | 0.00 | 0.00 | 83 | 1014.7 |
| 20260905114334 | 78 | 123 | 0.0 | 1.0 | 0.00 | 0.00 | 0.00 | 83 | 1014.7 |
| 20260905113828 | 78 | 127 | 0.0 | 1.0 | 0.00 | 0.00 | 0.00 | 83 | 1014.7 |
| 20260905113324 | 78 | 125 | 0.0 | 0.0 | 0.00 | 0.00 | 0.00 | 83 | 1014.6 |
| 20260905112819 | 78 | 123 | 0.0 | 0.0 | 0.00 | 0.00 | 0.00 | 83 | 1014.7 |
| 20260905112314 | 78 | 124 | 0.0 | 0.0 | 0.00 | 0.00 | 0.00 | 84 | 1014.7 |
| 20260905111809 | 77 | 123 | 0.0 | 0.0 | 0.00 | 0.00 | 0.00 | 84 | 1014.4 |
| 20260905111303 | 77 | 125 | 0.0 | 0.0 | 0.00 | 0.00 | 0.00 | 84 | 1014.4 |
| 20260905110803 | 78 | 125 | 0.0 | 0.0 | 0.00 | 0.00 | 0.00 | 83 | 1014.6 |
| 20260905110256 | 78 | 119 | 0.0 | 0.0 | 0.00 | 0.00 | 0.00 | 83 | 1014.3 |
| 20260905105752 | 77 | 117 | 0.0 | 0.0 | 0.00 | 0.00 | 0.00 | 83 | 1014.5 |
| 20260905105251 | 78 | 123 | 0.0 | 0.0 | 0.00 | 0.00 | 0.00 | 83 | 1014.7 |
| 20260905104746 | 78 | 120 | 0.0 | 0.0 | 0.00 | 0.00 | 0.00 | 83 | 1014.6 |
| 20260905104242 | 78 | 114 | 0.0 | 0.0 | 0.00 | 0.00 | 0.00 | 82 | 1014.5 |
| 20260905103736 | 78 | 125 | 0.0 | 0.0 | 0.00 | 0.00 | 0.00 | 82 | 1014.7 |
| 20260905103232 | 78 | 125 | 0.0 | 0.0 | 0.00 | 0.00 | 0.00 | 81 | 1014.7 |
| 20260905102727 | 79 | 115 | 0.0 | 0.0 | 0.00 | 0.00 | 0.00 | 81 | 1014.6 |
| 20260905102224 | 79 | 120 | 0.0 | 0.0 | 0.00 | 0.00 | 0.00 | 81 | 1014.6 |
| 20260905101723 | 79 | 106 | 0.0 | 0.0 | 0.00 | 0.00 | 0.00 | 80 | 1014.6 |
| 20260905101221 | 79 | 118 | 0.0 | 0.0 | 0.00 | 0.00 | 0.00 | 80 | 1014.4 |
| 20260905100717 | 79 | 109 | 0.0 | 0.0 | 0.00 | 0.00 | 0.00 | 79 | 1014.4 |
| 20260905100213 | 80 | 112 | 0.0 | 0.0 | 0.00 | 0.00 | 0.00 | 79 | 1014.3 |
| 20260905095712 | 80 | 119 | 0.0 | 1.0 | 0.00 | 0.00 | 0.00 | 79 | 1014.3 |
| 20260905095207 | 80 | 105 | 1.0 | 1.0 | 0.00 | 0.00 | 0.00 | 78 | 1014.4 |
| 20260905094706 | 81 | 115 | 0.0 | 1.0 | 0.00 | 0.00 | 0.00 | 77 | 1014.2 |
| 20260905094201 | 81 | 126 | 1.0 | 1.0 | 0.00 | 0.00 | 0.00 | 77 | 1014.3 |
| 20260905093655 | 81 | 130 | 0.0 | 2.0 | 0.00 | 0.00 | 0.00 | 76 | 1014.2 |
| 20260905093152 | 81 | 181 | 1.0 | 1.0 | 0.00 | 0.00 | 0.00 | 76 | 1014.1 |
| 20260905092646 | 81 | 143 | 1.0 | 1.0 | 0.00 | 0.00 | 0.00 | 76 | 1014.1 |
| 20260905092142 | 81 | 145 | 0.0 | 1.0 | 0.00 | 0.00 | 0.00 | 76 | 1014.0 |
| 20260905091642 | 81 | 144 | 0.0 | 1.0 | 0.00 | 0.00 | 0.00 | 76 | 1014.3 |
| 20260905091142 | 81 | 131 | 0.0 | 1.0 | 0.00 | 0.00 | 0.00 | 76 | 1014.2 |
| 20260905090636 | 81 | 143 | 1.0 | 1.0 | 0.00 | 0.00 | 0.00 | 76 | 1014.1 |
| 20260905090132 | 81 | 155 | 1.0 | 1.0 | 0.00 | 0.00 | 0.00 | 76 | 1014.2 |
| 20260905085631 | 81 | 135 | 0.0 | 1.0 | 0.00 | 0.00 | 0.00 | 76 | 1014.3 |
| 20260905085126 | 81 | 130 | 1.0 | 1.0 | 0.00 | 0.00 | 0.00 | 76 | 1014.1 |
| 20260905084626 | 81 | 163 | 1.0 | 1.0 | 0.00 | 0.00 | 0.00 | 76 | 1014.2 |
| 20260905084120 | 81 | 136 | 1.0 | 1.0 | 0.00 | 0.00 | 0.00 | 76 | 1014.2 |
| 20260905083615 | 81 | 130 | 0.0 | 0.0 | 0.00 | 0.00 | 0.00 | 76 | 1014.1 |
| 20260905083112 | 81 | 126 | 0.0 | 0.0 | 0.00 | 0.00 | 0.00 | 75 | 1014.0 |
| 20260905082607 | 82 | 113 | 0.0 | 1.0 | 0.00 | 0.00 | 0.00 | 75 | 1014.0 |
| 20260905082102 | 82 | 125 | 0.0 | 1.0 | 0.00 | 0.00 | 0.00 | 75 | 1014.0 |
| 20260905081602 | 82 | 130 | 0.0 | 1.0 | 0.00 | 0.00 | 0.00 | 75 | 1014.2 |
| 20260905081056 | 82 | 127 | 0.0 | 1.0 | 0.00 | 0.00 | 0.00 | 74 | 1014.2 |
| 20260905080551 | 82 | 122 | 0.0 | 1.0 | 0.00 | 0.00 | 0.00 | 74 | 1013.9 |
| 20260905080046 | 82 | 136 | 0.0 | 1.0 | 0.00 | 0.00 | 0.00 | 74 | 1013.8 |
| 20260905075539 | 83 | 126 | 0.0 | 2.0 | 0.00 | 0.00 | 0.00 | 73 | 1014.1 |
| 20260905075039 | 83 | 136 | 1.0 | 2.0 | 0.00 | 0.00 | 0.00 | 73 | 1013.8 |
| 20260905074538 | 83 | 132 | 0.0 | 1.0 | 0.00 | 0.00 | 0.00 | 73 | 1013.9 |
| 20260905074034 | 83 | 137 | 0.0 | 2.0 | 0.00 | 0.00 | 0.00 | 73 | 1013.9 |
| 20260905073529 | 83 | 120 | 1.0 | 1.0 | 0.00 | 0.00 | 0.00 | 73 | 1013.9 |
| 20260905073026 | 83 | 156 | 1.0 | 2.0 | 0.00 | 0.00 | 0.00 | 72 | 1013.9 |
| 20260905072524 | 83 | 129 | 0.0 | 1.0 | 0.00 | 0.00 | 0.00 | 72 | 1014.0 |
| 20260905072020 | 83 | 128 | 0.0 | 0.0 | 0.00 | 0.00 | 0.00 | 72 | 1014.0 |
| 20260905071517 | 83 | 140 | 0.0 | 1.0 | 0.00 | 0.00 | 0.00 | 72 | 1014.0 |
| 20260905071017 | 83 | 130 | 0.0 | 1.0 | 0.00 | 0.00 | 0.00 | 72 | 1014.1 |
| 20260905070512 | 83 | 156 | 0.0 | 1.0 | 0.00 | 0.00 | 0.00 | 72 | 1014.1 |
| 20260905070008 | 83 | 155 | 0.0 | 1.0 | 0.00 | 0.00 | 0.00 | 71 | 1014.3 |
| 20260905065505 | 84 | 115 | 0.0 | 0.0 | 0.00 | 0.00 | 0.00 | 71 | 1014.3 |
| 20260905065001 | 84 | 140 | 0.0 | 2.0 | 0.00 | 0.00 | 0.00 | 71 | 1014.3 |
| 20260905064501 | 84 | 132 | 1.0 | 2.0 | 0.00 | 0.00 | 0.00 | 70 | 1014.1 |
| 20260905063956 | 84 | 161 | 0.0 | 0.0 | 0.00 | 0.00 | 0.00 | 70 | 1014.3 |
| 20260905063445 | 84 | 130 | 0.0 | 2.0 | 0.00 | 0.00 | 0.00 | 70 | 1014.2 |
| 20260905062942 | 84 | 145 | 2.0 | 2.0 | 0.00 | 0.00 | 0.00 | 70 | 1014.4 |
| 20260905062441 | 84 | 121 | 1.0 | 2.0 | 0.00 | 0.00 | 0.00 | 69 | 1014.4 |
| 20260905061937 | 84 | 157 | 1.0 | 2.0 | 0.00 | 0.00 | 0.00 | 69 | 1014.4 |
| 20260905061437 | 84 | 135 | 1.0 | 2.0 | 0.00 | 0.00 | 0.00 | 69 | 1014.3 |
| 20260905060936 | 85 | 126 | 0.0 | 1.0 | 0.00 | 0.00 | 0.00 | 69 | 1014.2 |
| 20260905060432 | 85 | 142 | 1.0 | 2.0 | 0.00 | 0.00 | 0.00 | 69 | 1014.2 |
| 20260905055931 | 85 | 111 | 0.0 | 1.0 | 0.00 | 0.00 | 0.00 | 68 | 1014.2 |
| 20260905055427 | 85 | 125 | 0.0 | 2.0 | 0.00 | 0.00 | 0.00 | 68 | 1014.2 |
| 20260905054926 | 85 | 140 | 1.0 | 1.0 | 0.00 | 0.00 | 0.00 | 68 | 1014.1 |
| 20260905054422 | 85 | 137 | 0.0 | 1.0 | 0.00 | 0.00 | 0.00 | 68 | 1014.1 |
| 20260905053922 | 85 | 127 | 0.0 | 1.0 | 0.00 | 0.00 | 0.00 | 67 | 1014.1 |
| 20260905053416 | 85 | 92 | 1.0 | 1.0 | 0.00 | 0.00 | 0.00 | 67 | 1014.1 |
| 20260905052912 | 85 | 122 | 0.0 | 1.0 | 0.00 | 0.00 | 0.00 | 67 | 1014.0 |
| 20260905052411 | 85 | 123 | 0.0 | 1.0 | 0.00 | 0.00 | 0.00 | 67 | 1014.0 |
| 20260905051911 | 86 | 127 | 0.0 | 1.0 | 0.00 | 0.00 | 0.00 | 66 | 1013.9 |
| 20260905051407 | 86 | 77 | 1.0 | 2.0 | 0.00 | 0.00 | 0.00 | 66 | 1014.2 |
| 20260905050904 | 86 | 135 | 0.0 | 1.0 | 0.00 | 0.00 | 0.00 | 65 | 1013.9 |
| 20260905050359 | 86 | 127 | 0.0 | 5.0 | 0.00 | 0.00 | 0.00 | 65 | 1013.9 |
| 20260905045855 | 86 | 123 | 0.0 | 1.0 | 0.00 | 0.00 | 0.00 | 65 | 1013.9 |
| 20260905045350 | 86 | 117 | 0.0 | 0.0 | 0.00 | 0.00 | 0.00 | 64 | 1014.0 |
| 20260905044845 | 86 | 130 | 1.0 | 1.0 | 0.00 | 0.00 | 0.00 | 64 | 1014.1 |
| 20260905044340 | 86 | 118 | 0.0 | 1.0 | 0.00 | 0.00 | 0.00 | 63 | 1013.9 |
| 20260905043839 | 87 | 130 | 1.0 | 1.0 | 0.00 | 0.00 | 0.00 | 63 | 1013.9 |
| 20260905043334 | 87 | 125 | 0.0 | 1.0 | 0.00 | 0.00 | 0.00 | 62 | 1013.9 |
| 20260905042829 | 87 | 148 | 1.0 | 2.0 | 0.00 | 0.00 | 0.00 | 62 | 1013.9 |
| 20260905042328 | 87 | 128 | 0.0 | 1.0 | 0.00 | 0.00 | 0.00 | 62 | 1013.8 |
| 20260905041824 | 87 | 175 | 0.0 | 1.0 | 0.00 | 0.00 | 0.00 | 62 | 1013.7 |
| 20260905041320 | 87 | 99 | 0.0 | 1.0 | 0.00 | 0.00 | 0.00 | 61 | 1013.7 |
| 20260905040820 | 87 | 124 | 1.0 | 2.0 | 0.00 | 0.00 | 0.00 | 61 | 1013.8 |
| 20260905040318 | 87 | 132 | 0.0 | 1.0 | 0.00 | 0.00 | 0.00 | 60 | 1014.1 |
| 20260905035813 | 88 | 128 | 2.0 | 3.0 | 0.00 | 0.00 | 0.00 | 60 | 1014.0 |
| 20260905035309 | 88 | 147 | 1.0 | 2.0 | 0.00 | 0.00 | 0.00 | 60 | 1013.9 |
| 20260905034806 | 88 | 95 | 1.0 | 3.0 | 0.00 | 0.00 | 0.00 | 59 | 1013.9 |
| 20260905034301 | 88 | 131 | 1.0 | 3.0 | 0.00 | 0.00 | 0.00 | 59 | 1014.0 |
| 20260905033759 | 88 | 117 | 1.0 | 3.0 | 0.00 | 0.00 | 0.00 | 58 | 1014.0 |
| 20260905033255 | 89 | 127 | 1.0 | 2.0 | 0.00 | 0.00 | 0.00 | 57 | 1013.9 |
| 20260905032754 | 89 | 138 | 1.0 | 2.0 | 0.00 | 0.00 | 0.00 | 57 | 1014.0 |
| 20260905032249 | 89 | 103 | 2.0 | 2.0 | 0.00 | 0.00 | 0.00 | 56 | 1013.9 |
| 20260905031744 | 89 | 118 | 1.0 | 2.0 | 0.00 | 0.00 | 0.00 | 56 | 1013.9 |
| 20260905031240 | 90 | 126 | 1.0 | 2.0 | 0.00 | 0.00 | 0.00 | 55 | 1013.8 |
| 20260905030735 | 90 | 110 | 1.0 | 2.0 | 0.00 | 0.00 | 0.00 | 55 | 1013.7 |
| 20260905030230 | 90 | 105 | 3.0 | 5.0 | 0.00 | 0.00 | 0.00 | 55 | 1013.7 |
| 20260905025725 | 90 | 136 | 2.0 | 2.0 | 0.00 | 0.00 | 0.00 | 55 | 1013.5 |
| 20260905025221 | 91 | 131 | 1.0 | 2.0 | 0.00 | 0.00 | 0.00 | 54 | 1013.7 |
| 20260905024716 | 91 | 140 | 1.0 | 3.0 | 0.00 | 0.00 | 0.00 | 54 | 1013.3 |
| 20260905024212 | 91 | 105 | 1.0 | 2.0 | 0.00 | 0.00 | 0.00 | 53 | 1013.6 |
| 20260905023706 | 91 | 131 | 1.0 | 2.0 | 0.00 | 0.00 | 0.00 | 53 | 1013.3 |
| 20260905023201 | 91 | 158 | 2.0 | 5.0 | 0.00 | 0.00 | 0.00 | 52 | 1013.3 |
| 20260905022700 | 91 | 91 | 1.0 | 2.0 | 0.00 | 0.00 | 0.00 | 53 | 1013.1 |
| 20260905022155 | 91 | 129 | 1.0 | 1.0 | 0.00 | 0.00 | 0.00 | 53 | 1013.0 |
| 20260905021655 | 92 | 124 | 0.0 | 3.0 | 0.00 | 0.00 | 0.00 | 52 | 1013.0 |
| 20260905021150 | 91 | 139 | 1.0 | 2.0 | 0.00 | 0.00 | 0.00 | 52 | 1013.0 |
| 20260905020645 | 92 | 117 | 1.0 | 3.0 | 0.00 | 0.00 | 0.00 | 52 | 1012.8 |
| 20260905020140 | 92 | 129 | 1.0 | 3.0 | 0.00 | 0.00 | 0.00 | 51 | 1012.8 |
| 20260905015639 | 92 | 150 | 1.0 | 3.0 | 0.00 | 0.00 | 0.00 | 52 | 1012.5 |
| 20260905015133 | 92 | 138 | 1.0 | 2.0 | 0.00 | 0.00 | 0.00 | 51 | 1012.5 |
| 20260905014627 | 92 | 141 | 1.0 | 7.0 | 0.00 | 0.00 | 0.00 | 51 | 1012.7 |
| 20260905014123 | 92 | 111 | 1.0 | 3.0 | 0.00 | 0.00 | 0.00 | 51 | 1012.5 |
| 20260905013620 | 92 | 135 | 2.0 | 6.0 | 0.00 | 0.00 | 0.00 | 52 | 1012.4 |
| 20260905013115 | 92 | 137 | 1.0 | 3.0 | 0.00 | 0.00 | 0.00 | 52 | 1012.3 |
| 20260905012615 | 93 | 133 | 1.0 | 2.0 | 0.00 | 0.00 | 0.00 | 52 | 1012.0 |
| 20260905012112 | 93 | 127 | 2.0 | 3.0 | 0.00 | 0.00 | 0.00 | 51 | 1012.2 |
| 20260905011607 | 93 | 175 | 2.0 | 2.0 | 0.00 | 0.00 | 0.00 | 52 | 1012.2 |
| 20260905011103 | 93 | 168 | 2.0 | 3.0 | 0.00 | 0.00 | 0.00 | 51 | 1012.2 |
| 20260905010602 | 93 | 154 | 3.0 | 6.0 | 0.00 | 0.00 | 0.00 | 51 | 1012.2 |
| 20260905010059 | 93 | 127 | 1.0 | 3.0 | 0.00 | 0.00 | 0.00 | 50 | 1012.2 |
| 20260905005554 | 94 | 126 | 1.0 | 1.0 | 0.00 | 0.00 | 0.00 | 50 | 1011.9 |
| 20260905005050 | 94 | 129 | 1.0 | 3.0 | 0.00 | 0.00 | 0.00 | 49 | 1011.9 |
| 20260905004544 | 94 | 158 | 3.0 | 3.0 | 0.00 | 0.00 | 0.00 | 48 | 1011.9 |
| 20260905004039 | 94 | 122 | 2.0 | 3.0 | 0.00 | 0.00 | 0.00 | 49 | 1011.7 |
| 20260905003535 | 95 | 134 | 1.0 | 5.0 | 0.00 | 0.00 | 0.00 | 49 | 1011.6 |
| 20260905003031 | 95 | 144 | 2.0 | 3.0 | 0.00 | 0.00 | 0.00 | 49 | 1011.5 |
| 20260905002526 | 95 | 121 | 4.0 | 7.0 | 0.00 | 0.00 | 0.00 | 48 | 1011.5 |
| 20260905002020 | 95 | 143 | 4.0 | 5.0 | 0.00 | 0.00 | 0.00 | 48 | 1011.6 |
| 20260905001515 | 95 | 137 | 3.0 | 5.0 | 0.00 | 0.00 | 0.00 | 48 | 1011.4 |
| 20260905001009 | 95 | 134 | 1.0 | 3.0 | 0.00 | 0.00 | 0.00 | 48 | 1011.6 |
| 20260905000505 | 95 | 127 | 3.0 | 6.0 | 0.00 | 0.00 | 0.00 | 48 | 1011.5 |
| 20260905000000 | 96 | 128 | 1.0 | 2.0 | 0.00 | 0.00 | 0.00 | 48 | 1011.4 |
| 20260904235455 | 96 | 192 | 2.0 | 5.0 | 0.00 | 0.00 | 0.00 | 48 | 1011.4 |
| 20260904234950 | 96 | 122 | 2.0 | 5.0 | 0.00 | 0.00 | 0.00 | 49 | 1011.1 |